Regional Weather Roundup
Issued by NWS State College, PA

Home | Current Version | Previous Version | Graphics & Text | Print | Product List | Glossary Off
Versions: 1 2 3 4 5 6 7 8 9 10 11 12 13 14 15 16 17 18 19 20 21 22 23 24 25 26 27 28 29 30 31 32 33 34 35 36 37 38 39 40 41 42 43 44 45 46 47 48 49 50

557
ASUS41 KCTP 220303
RWRCTP

REGIONAL WEATHER ROUNDUP
NATIONAL WEATHER SERVICE STATE COLLEGE PA
1100 PM EDT FRI JUL 21 2017

Note: "fair" indicates few or no clouds below 12,000 feet with no
significant weather and/or obstructions to visibility.

* = STATION THAT DOES NOT REPORT PRECIPITATION /E.G. RAIN...SNOW...ETC/
    THUNDER OR FOG.

PAZ002>004-007>009-013>016-020>023-029>032-220400-
WESTERN PENNSYLVANIA

CITY           SKY/WX    TMP DP  RH WIND       PRES   REMARKS
ERIE           PTCLDY    71  65  81 S5        29.96S
MEADVILLE      PTCLDY    69  66  90 NE6       29.99S
FRANKLIN*      PTCLDY    70  63  78 N3        30.00S
NEW CASTLE     FAIR      71  69  93 CALM      30.00R
BEAVER COUNTY  NOT AVBL
BUTLER*        MOCLDY    73  68  83 SW3       30.00R
PITTSBURGH INT MOCLDY    76  74  93 W5        29.99R
PITTSBURGH     CLOUDY    75  70  84 S7        29.99R
INDIANA*       CLOUDY    73  72  94 VRB7      30.02S
LATROBE        CLOUDY    73  73 100 S9        30.00F FOG
WASHINGTON CO* CLOUDY    73  70  88 SW7       30.01R
$$

PAZ004>006-010>012-017>019-024>028-033>037-041-042-045-046-049>053-220400-
CENTRAL PENNSYLVANIA

CITY           SKY/WX    TMP DP  RH WIND       PRES   REMARKS
BRADFORD       PTCLDY    65  64  97 CALM      30.01F
DUBOIS         CLEAR     71  66  84 CALM      30.00S
CLEARFIELD     CLEAR     70  68  93 N6        29.99S
JOHNSTOWN      MOCLDY    73  70  90 SW8       30.04S
ALTOONA        CLEAR     70  69  97 S5        30.00S
STATE COLLEGE  CLEAR     74  67  81 CALM      29.97S
WILLIAMSPORT   MOCLDY    77  72  84 S3        29.91R
SELINSGROVE    MOCLDY    74  74 100 CALM      29.92S
FT INDIANTOWN  PTCLDY    75  73  93 CALM      29.92S
CAPITAL CITY   MOCLDY    81  73  76 W3        29.91S
HARRISBURG     PTCLDY    81  76  84 W6        29.90S
YORK           CLOUDY    77  74  90 W3        29.92S
$$

PAZ038>040-043-044-047-048-054-055-060>062-067>071-220400-
EASTERN PENNSYLVANIA

CITY           SKY/WX    TMP DP  RH WIND       PRES   REMARKS
SCRANTON       PTCLDY    77  72  84 S3        29.93R
MOUNT POCONO   CLOUDY    71  69  93 W5        29.98R
ALLENTOWN      MOCLDY    78  70  76 SW6       29.90S
QUAKERTOWN*    CLOUDY    75  73  94 CALM      29.93S
READING        CLOUDY    80  75  84 CALM      29.90S
LANCASTER      CLOUDY    81  75  82 NW3       29.92R
COATESVILLE    CLOUDY    81  72  74 CALM      29.95S
POTTSTOWN      CLOUDY    79  73  82 VRB3      29.93R
BLUE BELL      MOCLDY    77  72  83 CALM      29.92S
DOYLESTOWN     MOCLDY    81  71  71 SW5       29.91R
WILLOW GROVE   NOT AVBL
NORTH PHILA    CLOUDY    86  71  60 W7        29.91R
PHILADELPHIA   CLOUDY    84  71  65 S6        29.90R
$$




USA.gov is the U.S. government's official web portal to all federal, state and local government web resources and services.